Simultaneous Nadir Overpasses (SNOs) Predictions

Prediction of SNOs between GOES-15 and TERRA Satellite Orbit:

Table of predicted SNOs for the next 14.0 days since TLE Epoch: 11/11/2023
Index Date Time (GOES-15) GOES-15 Lat,Lon TERRA Lat,Lon Distance(km) Time Diff (sec)
1 11/11/2023 17:39:54 0.26, 61.81 0.78, 64.33 286.29 80
2 11/12/2023 06:00:00 -0.26, 61.71 0.22, 59.44 257.83 80
3 11/14/2023 05:45:59 -0.25, 61.71 -0.60, 63.47 199.46 80
4 11/14/2023 18:06:13 0.24, 61.81 -0.45, 58.56 370.04 80
5 11/16/2023 17:46:52 0.24, 61.83 0.41, 62.58 85.93 80
6 11/17/2023 06:06:58 -0.23, 61.74 0.64, 57.70 459.98 80
7 11/19/2023 05:50:17 -0.23, 61.76 -0.25, 61.72 5.01 80
8 11/21/2023 05:36:14 -0.22, 61.78 -1.04, 65.76 452.17 80
9 11/21/2023 17:56:28 0.21, 61.87 0.03, 60.84 116.44 80
10 11/23/2023 17:37:05 0.22, 61.90 0.86, 64.88 339.22 80
11 11/24/2023 05:57:11 -0.21, 61.82 0.19, 60.00 207.76 80
